Time,TemperatureF,DewpointF,PressureIn,WindDirection,WindDirectionDegrees,WindSpeedMPH,WindSpeedGustMPH,Humidity,HourlyPrecipIn,Conditions,Clouds,dailyrainin,SoftwareType,DateUTC
2013-05-08 00:14:00,53.5,49.4,30.04,South,171,0.0,0.0,86,0.00,,,0.00,Wunderground v.1.15,2013-05-08 04:14:00,
2013-05-08 00:15:00,53.5,49.4,30.04,South,171,0.0,0.0,86,0.00,,,0.00,Wunderground v.1.15,2013-05-08 04:15:00,
2013-05-08 00:19:00,53.5,49.4,30.04,South,171,0.0,0.0,86,0.00,,,0.00,Wunderground v.1.15,2013-05-08 04:19:00,
2013-05-08 00:21:00,53.5,49.4,30.04,South,171,0.0,0.0,86,0.00,,,0.00,Wunderground v.1.15,2013-05-08 04:21:00,
2013-05-08 00:39:00,53.2,49.7,30.04,South,171,0.0,0.0,88,0.00,,,0.00,Wunderground v.1.15,2013-05-08 04:39:00,
2013-05-08 00:54:00,53.2,49.7,30.04,South,171,0.0,0.0,88,0.00,,,0.00,Wunderground v.1.15,2013-05-08 04:54:00,
2013-05-08 00:59:00,53.0,49.5,30.04,South,171,0.0,0.0,88,0.00,,,0.00,Wunderground v.1.15,2013-05-08 04:59:00,
2013-05-08 01:13:00,52.5,49.4,30.04,South,171,0.0,0.0,89,0.00,,,0.00,Wunderground v.1.15,2013-05-08 05:13:00,
2013-05-08 01:18:00,52.4,49.3,30.04,South,171,0.0,0.0,89,0.00,,,0.00,Wunderground v.1.15,2013-05-08 05:18:00,
2013-05-08 01:29:00,52.3,49.5,30.03,South,171,0.0,0.0,90,0.00,,,0.00,Wunderground v.1.15,2013-05-08 05:29:00,
2013-05-08 01:40:00,51.9,49.1,30.03,South,171,0.0,0.0,90,0.00,,,0.00,Wunderground v.1.15,2013-05-08 05:40:00,
2013-05-08 01:49:00,51.7,48.9,30.03,South,171,0.0,0.0,90,0.00,,,0.00,Wunderground v.1.15,2013-05-08 05:49:00,
2013-05-08 02:00:00,51.5,49.0,30.03,South,171,0.0,0.0,91,0.00,,,0.00,Wunderground v.1.15,2013-05-08 06:00:00,
2013-05-08 02:09:00,51.2,48.7,30.02,South,171,0.0,0.0,91,0.00,,,0.00,Wunderground v.1.15,2013-05-08 06:09:00,
2013-05-08 02:19:00,51.0,48.5,30.02,South,171,0.0,0.0,91,0.00,,,0.00,Wunderground v.1.15,2013-05-08 06:19:00,
2013-05-08 02:31:00,50.9,48.7,30.02,South,171,0.0,0.0,92,0.00,,,0.00,Wunderground v.1.15,2013-05-08 06:31:00,
2013-05-08 02:51:00,50.6,48.4,30.02,South,171,0.0,0.0,92,0.00,,,0.00,Wunderground v.1.15,2013-05-08 06:51:00,
2013-05-08 03:06:00,50.4,48.2,30.01,South,171,0.0,0.0,92,0.00,,,0.00,Wunderground v.1.15,2013-05-08 07:06:00,
2013-05-08 03:12:00,50.2,48.0,30.01,South,171,0.0,0.0,92,0.00,,,0.00,Wunderground v.1.15,2013-05-08 07:12:00,
2013-05-08 03:22:00,50.0,48.1,30.01,South,171,0.0,0.0,93,0.00,,,0.00,Wunderground v.1.15,2013-05-08 07:22:00,
2013-05-08 03:34:00,49.9,48.0,30.01,South,171,0.0,0.0,93,0.00,,,0.00,Wunderground v.1.15,2013-05-08 07:34:00,
2013-05-08 03:39:00,49.7,47.8,30.01,South,171,0.0,0.0,93,0.00,,,0.00,Wunderground v.1.15,2013-05-08 07:39:00,
2013-05-08 03:57:00,50.0,48.3,30.01,South,171,0.0,0.0,94,0.00,,,0.00,Wunderground v.1.15,2013-05-08 07:57:00,
2013-05-08 04:02:00,50.0,48.3,30.01,South,171,0.0,0.0,94,0.00,,,0.00,Wunderground v.1.15,2013-05-08 08:02:00,
2013-05-08 04:16:00,49.8,47.9,30.01,South,171,0.0,0.0,93,0.00,,,0.00,Wunderground v.1.15,2013-05-08 08:16:00,
2013-05-08 04:22:00,49.7,47.8,30.01,South,171,0.0,0.0,93,0.00,,,0.00,Wunderground v.1.15,2013-05-08 08:22:00,
2013-05-08 04:30:00,49.6,47.9,30.01,South,171,0.0,0.0,94,0.00,,,0.00,Wunderground v.1.15,2013-05-08 08:30:00,
2013-05-08 05:00:00,49.2,47.5,30.01,South,171,0.0,0.0,94,0.00,,,0.00,Wunderground v.1.15,2013-05-08 09:00:00,
2013-05-08 05:25:00,48.6,47.0,30.01,South,171,0.0,0.0,94,0.00,,,0.00,Wunderground v.1.15,2013-05-08 09:25:00,
2013-05-08 05:30:00,48.5,46.9,30.01,South,171,0.0,0.0,94,0.00,,,0.00,Wunderground v.1.15,2013-05-08 09:30:00,
2013-05-08 05:36:00,48.5,46.9,30.01,South,171,0.0,0.0,94,0.00,,,0.00,Wunderground v.1.15,2013-05-08 09:36:00,
2013-05-08 05:43:00,48.5,46.9,30.01,South,171,0.0,0.0,94,0.00,,,0.00,Wunderground v.1.15,2013-05-08 09:43:00,
2013-05-08 06:14:00,49.1,47.7,30.01,South,171,0.0,0.0,95,0.00,,,0.00,Wunderground v.1.15,2013-05-08 10:14:00,
2013-05-08 06:20:00,49.0,47.6,30.01,South,171,0.0,0.0,95,0.00,,,0.00,Wunderground v.1.15,2013-05-08 10:20:00,
2013-05-08 06:29:00,48.9,47.5,30.01,South,171,0.0,0.0,95,0.00,,,0.00,Wunderground v.1.15,2013-05-08 10:29:00,
2013-05-08 06:34:00,48.8,47.4,30.01,South,171,0.0,0.0,95,0.00,,,0.00,Wunderground v.1.15,2013-05-08 10:34:00,
2013-05-08 06:40:00,48.7,47.3,30.01,South,171,0.0,0.0,95,0.00,,,0.00,Wunderground v.1.15,2013-05-08 10:40:00,
2013-05-08 06:47:00,48.5,47.1,30.02,South,171,0.0,0.0,95,0.00,,,0.00,Wunderground v.1.15,2013-05-08 10:47:00,
2013-05-08 06:52:00,48.3,46.9,30.02,South,171,0.0,0.0,95,0.00,,,0.00,Wunderground v.1.15,2013-05-08 10:52:00,
2013-05-08 07:10:00,49.2,48.1,30.02,South,171,0.0,0.0,96,0.00,,,0.00,Wunderground v.1.15,2013-05-08 11:10:00,
2013-05-08 07:29:00,50.2,49.1,30.02,South,171,0.0,0.0,96,0.00,,,0.00,Wunderground v.1.15,2013-05-08 11:29:00,
2013-05-08 07:41:00,50.5,49.4,30.03,South,171,0.0,0.0,96,0.00,,,0.00,Wunderground v.1.15,2013-05-08 11:41:00,
2013-05-08 07:46:00,50.7,49.3,30.03,South,171,0.0,0.0,95,0.00,,,0.00,Wunderground v.1.15,2013-05-08 11:46:00,
2013-05-08 07:52:00,50.9,49.8,30.03,South,171,0.0,0.0,96,0.00,,,0.00,Wunderground v.1.15,2013-05-08 11:52:00,
2013-05-08 07:57:00,51.1,49.7,30.03,South,171,0.0,0.0,95,0.00,,,0.00,Wunderground v.1.15,2013-05-08 11:57:00,
2013-05-08 08:02:00,51.8,50.1,30.03,South,171,0.0,0.0,94,0.00,,,0.00,Wunderground v.1.15,2013-05-08 12:02:00,
2013-05-08 08:08:00,52.7,50.1,30.03,SE,140,0.0,1.0,91,0.00,,,0.00,Wunderground v.1.15,2013-05-08 12:08:00,
2013-05-08 08:13:00,53.9,49.2,30.03,ESE,120,1.0,2.0,84,0.00,,,0.00,Wunderground v.1.15,2013-05-08 12:13:00,
2013-05-08 08:19:00,55.0,47.9,30.03,ENE,68,1.0,3.0,77,0.00,,,0.00,Wunderground v.1.15,2013-05-08 12:19:00,
2013-05-08 08:25:00,56.5,47.2,30.03,NE,51,1.0,1.0,71,0.00,,,0.00,Wunderground v.1.15,2013-05-08 12:25:00,
2013-05-08 08:31:00,57.6,47.1,30.03,NE,52,1.0,1.0,68,0.00,,,0.00,Wunderground v.1.15,2013-05-08 12:31:00,
2013-05-08 08:37:00,58.4,47.5,30.03,North,5,1.0,6.0,67,0.00,,,0.00,Wunderground v.1.15,2013-05-08 12:37:00,
2013-05-08 08:42:00,59.0,45.6,30.03,NNE,33,1.0,4.0,61,0.00,,,0.00,Wunderground v.1.15,2013-05-08 12:42:00,
2013-05-08 08:48:00,59.7,46.7,30.03,NNE,26,2.0,4.0,62,0.00,,,0.00,Wunderground v.1.15,2013-05-08 12:48:00,
2013-05-08 08:53:00,60.3,46.4,30.03,NE,35,2.0,7.0,60,0.00,,,0.00,Wunderground v.1.15,2013-05-08 12:53:00,
2013-05-08 08:59:00,61.0,46.6,30.03,NE,41,2.0,7.0,59,0.00,,,0.00,Wunderground v.1.15,2013-05-08 12:59:00,
2013-05-08 09:04:00,61.5,47.5,30.03,NNW,345,2.0,4.0,60,0.00,,,0.00,Wunderground v.1.15,2013-05-08 13:04:00,
2013-05-08 09:10:00,62.1,46.7,30.03,NNW,346,2.0,7.0,57,0.00,,,0.00,Wunderground v.1.15,2013-05-08 13:10:00,
2013-05-08 09:15:00,62.3,45.9,30.03,NNE,29,4.0,7.0,55,0.00,,,0.00,Wunderground v.1.15,2013-05-08 13:15:00,
2013-05-08 09:21:00,62.8,46.4,30.03,NNE,15,4.0,6.0,55,0.00,,,0.00,Wunderground v.1.15,2013-05-08 13:21:00,
2013-05-08 09:27:00,63.2,47.2,30.03,NNE,22,3.0,6.0,56,0.00,,,0.00,Wunderground v.1.15,2013-05-08 13:27:00,
2013-05-08 09:35:00,64.2,48.2,30.03,NNE,31,2.0,4.0,56,0.00,,,0.00,Wunderground v.1.15,2013-05-08 13:35:00,
2013-05-08 09:41:00,64.5,48.0,30.03,NNE,17,2.0,6.0,55,0.00,,,0.00,Wunderground v.1.15,2013-05-08 13:41:00,
2013-05-08 09:46:00,64.9,49.3,30.03,NNE,13,3.0,6.0,57,0.00,,,0.00,Wunderground v.1.15,2013-05-08 13:46:00,
2013-05-08 09:51:00,65.2,48.6,30.02,North,355,2.0,4.0,55,0.00,,,0.00,Wunderground v.1.15,2013-05-08 13:51:00,
2013-05-08 09:56:00,65.5,48.4,30.03,NNE,13,3.0,4.0,54,0.00,,,0.00,Wunderground v.1.15,2013-05-08 13:56:00,
2013-05-08 10:02:00,66.1,49.5,30.02,NNE,33,2.0,3.0,55,0.00,,,0.00,Wunderground v.1.15,2013-05-08 14:02:00,
2013-05-08 10:08:00,66.8,50.6,30.02,NNE,28,1.0,3.0,56,0.00,,,0.00,Wunderground v.1.15,2013-05-08 14:08:00,
2013-05-08 10:14:00,67.4,51.2,30.03,NNE,19,1.0,3.0,56,0.00,,,0.00,Wunderground v.1.15,2013-05-08 14:14:00,
2013-05-08 10:20:00,68.2,49.9,30.03,ENE,78,1.0,1.0,52,0.00,,,0.00,Wunderground v.1.15,2013-05-08 14:20:00,
2013-05-08 10:25:00,68.7,51.9,30.02,NNE,17,1.0,3.0,55,0.00,,,0.00,Wunderground v.1.15,2013-05-08 14:25:00,
2013-05-08 10:31:00,69.0,50.6,30.02,NNE,24,1.0,1.0,52,0.00,,,0.00,Wunderground v.1.15,2013-05-08 14:31:00,
2013-05-08 10:37:00,69.9,52.5,30.02,NNE,29,0.0,1.0,54,0.00,,,0.00,Wunderground v.1.15,2013-05-08 14:37:00,
2013-05-08 10:45:00,71.0,53.0,30.03,NE,41,0.0,1.0,53,0.00,,,0.00,Wunderground v.1.15,2013-05-08 14:45:00,
2013-05-08 10:51:00,71.4,51.8,30.02,NE,55,1.0,1.0,50,0.00,,,0.00,Wunderground v.1.15,2013-05-08 14:51:00,
2013-05-08 10:56:00,71.8,52.7,30.02,NE,55,1.0,1.0,51,0.00,,,0.00,Wunderground v.1.15,2013-05-08 14:56:00,
2013-05-08 11:01:00,72.4,53.2,30.02,ESE,109,0.0,0.0,51,0.00,,,0.00,Wunderground v.1.15,2013-05-08 15:01:00,
2013-05-08 11:06:00,73.1,53.4,30.02,ESE,111,0.0,1.0,50,0.00,,,0.00,Wunderground v.1.15,2013-05-08 15:06:00,
2013-05-08 11:11:00,73.5,53.2,30.02,ESE,107,0.0,0.0,49,0.00,,,0.00,Wunderground v.1.15,2013-05-08 15:11:00,
2013-05-08 11:16:00,73.4,53.6,30.02,East,80,0.0,0.0,50,0.00,,,0.00,Wunderground v.1.15,2013-05-08 15:16:00,
2013-05-08 11:22:00,73.4,53.1,30.02,ENE,69,1.0,1.0,49,0.00,,,0.00,Wunderground v.1.15,2013-05-08 15:22:00,
2013-05-08 11:27:00,73.9,53.5,30.02,ENE,57,1.0,1.0,49,0.00,,,0.00,Wunderground v.1.15,2013-05-08 15:27:00,
2013-05-08 11:36:00,74.3,53.3,30.02,ESE,103,1.0,1.0,48,0.00,,,0.00,Wunderground v.1.15,2013-05-08 15:36:00,
2013-05-08 11:42:00,74.4,54.5,30.02,NNE,24,1.0,3.0,50,0.00,,,0.00,Wunderground v.1.15,2013-05-08 15:42:00,
2013-05-08 11:48:00,74.6,52.4,30.02,NNE,26,1.0,5.0,46,0.00,,,0.00,Wunderground v.1.15,2013-05-08 15:48:00,
2013-05-08 11:56:00,74.0,53.1,30.02,North,355,2.0,8.0,48,0.00,,,0.00,Wunderground v.1.15,2013-05-08 15:56:00,
2013-05-08 12:02:00,73.9,51.2,30.02,NE,41,4.0,4.0,45,0.00,,,0.00,Wunderground v.1.15,2013-05-08 16:02:00,
2013-05-08 12:07:00,74.2,52.1,30.02,NNE,19,3.0,4.0,46,0.00,,,0.00,Wunderground v.1.15,2013-05-08 16:07:00,
2013-05-08 12:12:00,74.6,51.9,30.01,NE,45,2.0,2.0,45,0.00,,,0.00,Wunderground v.1.15,2013-05-08 16:12:00,
2013-05-08 12:18:00,75.0,51.6,30.01,NE,42,1.0,2.0,44,0.00,,,0.00,Wunderground v.1.15,2013-05-08 16:18:00,
2013-05-08 12:26:00,75.3,51.3,30.02,North,9,2.0,5.0,43,0.00,,,0.00,Wunderground v.1.15,2013-05-08 16:26:00,
2013-05-08 12:31:00,75.4,50.1,30.01,NNE,26,2.0,7.0,41,0.00,,,0.00,Wunderground v.1.15,2013-05-08 16:31:00,
2013-05-08 12:37:00,75.6,50.2,30.01,ENE,76,2.0,7.0,41,0.00,,,0.00,Wunderground v.1.15,2013-05-08 16:37:00,
2013-05-08 12:45:00,76.5,50.4,30.01,NNE,31,1.0,3.0,40,0.00,,,0.00,Wunderground v.1.15,2013-05-08 16:45:00,
2013-05-08 12:51:00,76.8,50.0,30.00,NE,48,1.0,1.0,39,0.00,,,0.00,Wunderground v.1.15,2013-05-08 16:51:00,
2013-05-08 12:57:00,76.8,50.0,30.00,NNE,24,1.0,6.0,39,0.00,,,0.00,Wunderground v.1.15,2013-05-08 16:57:00,
2013-05-08 13:02:00,76.7,49.9,30.00,NNE,27,1.0,1.0,39,0.00,,,0.00,Wunderground v.1.15,2013-05-08 17:02:00,
2013-05-08 13:07:00,76.7,48.5,29.99,NNE,28,2.0,4.0,37,0.00,,,0.00,Wunderground v.1.15,2013-05-08 17:07:00,
2013-05-08 13:12:00,76.8,50.6,30.00,NE,47,2.0,3.0,40,0.00,,,0.00,Wunderground v.1.15,2013-05-08 17:12:00,
2013-05-08 13:17:00,77.2,50.3,29.99,NNE,15,1.0,4.0,39,0.00,,,0.00,Wunderground v.1.15,2013-05-08 17:17:00,
2013-05-08 13:22:00,77.1,52.2,29.99,NNE,22,2.0,6.0,42,0.00,,,0.00,Wunderground v.1.15,2013-05-08 17:22:00,
2013-05-08 13:27:00,77.1,50.2,29.99,NE,48,3.0,6.0,39,0.00,,,0.00,Wunderground v.1.15,2013-05-08 17:27:00,
2013-05-08 13:32:00,77.6,48.5,29.99,NE,42,3.0,4.0,36,0.00,,,0.00,Wunderground v.1.15,2013-05-08 17:32:00,
2013-05-08 13:38:00,77.9,49.5,29.99,ENE,72,3.0,4.0,37,0.00,,,0.00,Wunderground v.1.15,2013-05-08 17:38:00,
2013-05-08 13:45:00,78.1,51.1,29.99,North,355,2.0,3.0,39,0.00,,,0.00,Wunderground v.1.15,2013-05-08 17:45:00,
2013-05-08 13:51:00,78.0,48.1,29.99,NE,38,3.0,7.0,35,0.00,,,0.00,Wunderground v.1.15,2013-05-08 17:51:00,
2013-05-08 13:57:00,78.1,49.7,29.99,NNE,16,3.0,7.0,37,0.00,,,0.00,Wunderground v.1.15,2013-05-08 17:57:00,
2013-05-08 14:02:00,78.4,50.0,29.98,ENE,74,2.0,4.0,37,0.00,,,0.00,Wunderground v.1.15,2013-05-08 18:02:00,
2013-05-08 14:07:00,78.9,51.1,29.98,NE,36,1.0,4.0,38,0.00,,,0.00,Wunderground v.1.15,2013-05-08 18:07:00,
2013-05-08 14:17:00,78.3,52.0,29.98,NE,48,1.0,5.0,40,0.00,,,0.00,Wunderground v.1.15,2013-05-08 18:17:00,
2013-05-08 14:22:00,78.6,50.1,29.98,NE,53,0.0,1.0,37,0.00,,,0.00,Wunderground v.1.15,2013-05-08 18:22:00,
2013-05-08 14:27:00,78.8,51.0,29.98,North,5,0.0,4.0,38,0.00,,,0.00,Wunderground v.1.15,2013-05-08 18:27:00,
2013-05-08 14:37:00,77.9,49.5,29.97,NE,36,2.0,5.0,37,0.00,,,0.00,Wunderground v.1.15,2013-05-08 18:37:00,
2013-05-08 14:47:00,79.2,49.9,29.97,NNW,334,2.0,2.0,36,0.00,,,0.00,Wunderground v.1.15,2013-05-08 18:47:00,
2013-05-08 14:56:00,78.7,50.2,29.97,NNE,15,3.0,4.0,37,0.00,,,0.00,Wunderground v.1.15,2013-05-08 18:56:00,
2013-05-08 15:02:00,79.2,50.7,29.97,NNE,13,2.0,4.0,37,0.00,,,0.00,Wunderground v.1.15,2013-05-08 19:02:00,
2013-05-08 15:07:00,79.7,51.1,29.97,ENE,71,1.0,4.0,37,0.00,,,0.00,Wunderground v.1.15,2013-05-08 19:07:00,
2013-05-08 15:17:00,80.9,50.7,29.97,East,82,1.0,3.0,35,0.00,,,0.00,Wunderground v.1.15,2013-05-08 19:17:00,
2013-05-08 15:22:00,81.4,48.7,29.97,East,82,1.0,1.0,32,0.00,,,0.00,Wunderground v.1.15,2013-05-08 19:22:00,
2013-05-08 15:27:00,81.4,50.3,29.97,ENE,65,1.0,1.0,34,0.00,,,0.00,Wunderground v.1.15,2013-05-08 19:27:00,
2013-05-08 15:35:00,79.3,49.3,29.97,NE,39,1.0,2.0,35,0.00,,,0.00,Wunderground v.1.15,2013-05-08 19:35:00,
2013-05-08 15:40:00,78.7,48.7,29.97,ENE,59,1.0,3.0,35,0.00,,,0.00,Wunderground v.1.15,2013-05-08 19:40:00,
2013-05-08 15:45:00,78.0,48.9,29.96,NE,56,1.0,3.0,36,0.00,,,0.00,Wunderground v.1.15,2013-05-08 19:45:00,
2013-05-08 15:50:00,77.8,49.4,29.96,NE,56,0.0,0.0,37,0.00,,,0.00,Wunderground v.1.15,2013-05-08 19:50:00,
2013-05-08 15:58:00,77.7,48.6,29.96,NE,56,0.0,0.0,36,0.00,,,0.00,Wunderground v.1.15,2013-05-08 19:58:00,
2013-05-08 16:05:00,77.3,49.7,29.95,NE,56,0.0,0.0,38,0.00,,,0.00,Wunderground v.1.15,2013-05-08 20:05:00,
2013-05-08 16:11:00,76.6,47.6,29.96,NNE,32,1.0,1.0,36,0.00,,,0.00,Wunderground v.1.15,2013-05-08 20:11:00,
2013-05-08 16:18:00,76.3,48.1,29.95,NNE,32,1.0,1.0,37,0.00,,,0.00,Wunderground v.1.15,2013-05-08 20:18:00,
2013-05-08 16:31:00,78.3,49.1,29.95,NNE,22,2.0,4.0,36,0.00,,,0.00,Wunderground v.1.15,2013-05-08 20:31:00,
2013-05-08 16:38:00,77.8,49.4,29.95,NNW,343,2.0,4.0,37,0.00,,,0.00,Wunderground v.1.15,2013-05-08 20:38:00,
2013-05-08 16:46:00,77.4,49.1,29.94,NNW,342,1.0,2.0,37,0.00,,,0.00,Wunderground v.1.15,2013-05-08 20:46:00,
2013-05-08 16:53:00,78.5,50.1,29.94,NE,38,3.0,6.0,37,0.00,,,0.00,Wunderground v.1.15,2013-05-08 20:53:00,
2013-05-08 16:58:00,79.2,49.2,29.94,NNE,13,3.0,6.0,35,0.00,,,0.00,Wunderground v.1.15,2013-05-08 20:58:00,
2013-05-08 17:06:00,79.5,49.4,29.94,NNW,346,1.0,1.0,35,0.00,,,0.00,Wunderground v.1.15,2013-05-08 21:06:00,
2013-05-08 17:12:00,78.6,48.7,29.94,NNW,331,3.0,3.0,35,0.00,,,0.00,Wunderground v.1.15,2013-05-08 21:12:00,
2013-05-08 17:17:00,78.7,48.7,29.94,NNW,333,2.0,3.0,35,0.00,,,0.00,Wunderground v.1.15,2013-05-08 21:17:00,
2013-05-08 17:25:00,80.0,49.9,29.94,NNE,29,2.0,5.0,35,0.00,,,0.00,Wunderground v.1.15,2013-05-08 21:25:00,
2013-05-08 17:31:00,80.4,50.2,29.94,NE,40,3.0,4.0,35,0.00,,,0.00,Wunderground v.1.15,2013-05-08 21:31:00,
2013-05-08 17:37:00,80.8,49.8,29.94,ENE,63,2.0,5.0,34,0.00,,,0.00,Wunderground v.1.15,2013-05-08 21:37:00,
2013-05-08 17:45:00,80.3,50.9,29.94,NNE,33,1.0,6.0,36,0.00,,,0.00,Wunderground v.1.15,2013-05-08 21:45:00,
2013-05-08 17:50:00,80.2,52.3,29.94,NE,40,2.0,6.0,38,0.00,,,0.00,Wunderground v.1.15,2013-05-08 21:50:00,
2013-05-08 17:55:00,80.6,51.2,29.94,East,99,1.0,4.0,36,0.00,,,0.00,Wunderground v.1.15,2013-05-08 21:55:00,
2013-05-08 18:01:00,80.5,51.1,29.94,East,95,2.0,2.0,36,0.00,,,0.00,Wunderground v.1.15,2013-05-08 22:01:00,
2013-05-08 18:06:00,80.0,50.6,29.93,SE,132,3.0,7.0,36,0.00,,,0.00,Wunderground v.1.15,2013-05-08 22:06:00,
2013-05-08 18:12:00,79.8,51.2,29.94,ENE,71,2.0,2.0,37,0.00,,,0.00,Wunderground v.1.15,2013-05-08 22:12:00,
2013-05-08 18:17:00,79.9,50.6,29.93,ENE,76,1.0,3.0,36,0.00,,,0.00,Wunderground v.1.15,2013-05-08 22:17:00,
2013-05-08 18:22:00,80.1,50.0,29.93,ESE,117,1.0,1.0,35,0.00,,,0.00,Wunderground v.1.15,2013-05-08 22:22:00,
2013-05-08 18:28:00,80.3,50.1,29.93,ENE,72,1.0,5.0,35,0.00,,,0.00,Wunderground v.1.15,2013-05-08 22:28:00,
2013-05-08 18:33:00,80.6,50.4,29.93,ENE,69,1.0,1.0,35,0.00,,,0.00,Wunderground v.1.15,2013-05-08 22:33:00,
2013-05-08 18:39:00,80.7,50.5,29.93,East,79,1.0,1.0,35,0.00,,,0.00,Wunderground v.1.15,2013-05-08 22:39:00,
2013-05-08 18:44:00,80.7,50.5,29.93,ENE,71,1.0,4.0,35,0.00,,,0.00,Wunderground v.1.15,2013-05-08 22:44:00,
2013-05-08 18:50:00,80.6,51.2,29.93,ESE,105,1.0,1.0,36,0.00,,,0.00,Wunderground v.1.15,2013-05-08 22:50:00,
2013-05-08 18:55:00,80.5,49.5,29.93,ENE,61,1.0,3.0,34,0.00,,,0.00,Wunderground v.1.15,2013-05-08 22:55:00,
2013-05-08 19:01:00,79.8,49.7,29.93,NE,41,1.0,1.0,35,0.00,,,0.00,Wunderground v.1.15,2013-05-08 23:01:00,
2013-05-08 19:06:00,79.6,51.0,29.93,NE,52,1.0,3.0,37,0.00,,,0.00,Wunderground v.1.15,2013-05-08 23:06:00,
2013-05-08 19:11:00,79.3,50.0,29.93,ENE,71,0.0,2.0,36,0.00,,,0.00,Wunderground v.1.15,2013-05-08 23:11:00,
2013-05-08 19:16:00,79.1,48.3,29.93,NE,48,1.0,3.0,34,0.00,,,0.00,Wunderground v.1.15,2013-05-08 23:16:00,
2013-05-08 19:22:00,78.7,48.7,29.93,ENE,72,1.0,1.0,35,0.00,,,0.00,Wunderground v.1.15,2013-05-08 23:22:00,
2013-05-08 19:28:00,78.3,48.4,29.93,NNE,17,1.0,3.0,35,0.00,,,0.00,Wunderground v.1.15,2013-05-08 23:28:00,
2013-05-08 19:33:00,78.0,48.1,29.93,ENE,57,1.0,1.0,35,0.00,,,0.00,Wunderground v.1.15,2013-05-08 23:33:00,
2013-05-08 19:39:00,78.0,49.6,29.93,ENE,67,0.0,3.0,37,0.00,,,0.00,Wunderground v.1.15,2013-05-08 23:39:00,
2013-05-08 19:45:00,77.8,48.7,29.93,SE,140,0.0,2.0,36,0.00,,,0.00,Wunderground v.1.15,2013-05-08 23:45:00,
2013-05-08 19:50:00,77.4,51.2,29.94,SSE,149,0.0,0.0,40,0.00,,,0.00,Wunderground v.1.15,2013-05-08 23:50:00,
2013-05-08 19:55:00,76.4,52.2,29.94,SSE,149,1.0,3.0,43,0.00,,,0.00,Wunderground v.1.15,2013-05-08 23:55:00,
2013-05-08 20:01:00,75.6,52.8,29.94,South,187,2.0,2.0,45,0.00,,,0.00,Wunderground v.1.15,2013-05-09 00:01:00,
2013-05-08 20:06:00,75.0,52.8,29.94,ESE,119,2.0,7.0,46,0.00,,,0.00,Wunderground v.1.15,2013-05-09 00:06:00,
2013-05-08 20:12:00,74.4,52.3,29.94,SSE,152,2.0,3.0,46,0.00,,,0.00,Wunderground v.1.15,2013-05-09 00:12:00,
2013-05-08 20:17:00,74.0,52.5,29.95,SE,140,2.0,3.0,47,0.00,,,0.00,Wunderground v.1.15,2013-05-09 00:17:00,
2013-05-08 20:23:00,73.6,52.7,29.95,South,186,1.0,2.0,48,0.00,,,0.00,Wunderground v.1.15,2013-05-09 00:23:00,
2013-05-08 20:29:00,73.2,52.9,29.95,SSW,200,2.0,7.0,49,0.00,,,0.00,Wunderground v.1.15,2013-05-09 00:29:00,
2013-05-08 20:34:00,72.9,53.2,29.95,SSW,198,1.0,1.0,50,0.00,,,0.00,Wunderground v.1.15,2013-05-09 00:34:00,
2013-05-08 20:40:00,72.6,52.9,29.95,South,182,0.0,0.0,50,0.00,,,0.00,Wunderground v.1.15,2013-05-09 00:40:00,
2013-05-08 20:45:00,72.3,53.2,29.95,South,182,0.0,0.0,51,0.00,,,0.00,Wunderground v.1.15,2013-05-09 00:45:00,
2013-05-08 20:50:00,71.9,53.3,29.96,South,184,0.0,0.0,52,0.00,,,0.00,Wunderground v.1.15,2013-05-09 00:50:00,
2013-05-08 20:56:00,71.4,53.4,29.96,South,184,0.0,0.0,53,0.00,,,0.00,Wunderground v.1.15,2013-05-09 00:56:00,
2013-05-08 21:02:00,71.0,53.0,29.96,SSW,196,0.0,2.0,53,0.00,,,0.00,Wunderground v.1.15,2013-05-09 01:02:00,
2013-05-08 21:07:00,70.6,53.1,29.96,SSW,197,0.0,2.0,54,0.00,,,0.00,Wunderground v.1.15,2013-05-09 01:07:00,
2013-05-08 21:12:00,70.2,52.8,29.97,SSW,197,0.0,1.0,54,0.00,,,0.00,Wunderground v.1.15,2013-05-09 01:12:00,
2013-05-08 21:17:00,69.9,52.5,29.97,SSW,197,0.0,1.0,54,0.00,,,0.00,Wunderground v.1.15,2013-05-09 01:17:00,
2013-05-08 21:23:00,69.4,52.0,29.97,SSW,197,0.0,0.0,54,0.00,,,0.00,Wunderground v.1.15,2013-05-09 01:23:00,
2013-05-08 21:29:00,69.1,52.2,29.97,SSW,197,0.0,0.0,55,0.00,,,0.00,Wunderground v.1.15,2013-05-09 01:29:00,
2013-05-08 21:34:00,68.8,52.5,29.97,SSW,197,0.0,0.0,56,0.00,,,0.00,Wunderground v.1.15,2013-05-09 01:34:00,
2013-05-08 21:40:00,68.2,52.4,29.97,SSW,197,0.0,0.0,57,0.00,,,0.00,Wunderground v.1.15,2013-05-09 01:40:00,
2013-05-08 21:45:00,67.7,52.4,29.97,SSW,196,0.0,0.0,58,0.00,,,0.00,Wunderground v.1.15,2013-05-09 01:45:00,
2013-05-08 21:51:00,67.2,52.4,29.97,SSW,197,0.0,0.0,59,0.00,,,0.00,Wunderground v.1.15,2013-05-09 01:51:00,
2013-05-08 21:56:00,67.0,52.7,29.97,SSW,192,0.0,1.0,60,0.00,,,0.00,Wunderground v.1.15,2013-05-09 01:56:00,
2013-05-08 22:01:00,66.8,52.5,29.98,SSW,192,0.0,0.0,60,0.00,,,0.00,Wunderground v.1.15,2013-05-09 02:01:00,
2013-05-08 22:06:00,66.7,52.4,29.98,SSW,192,0.0,0.0,60,0.00,,,0.00,Wunderground v.1.15,2013-05-09 02:06:00,
2013-05-08 22:11:00,66.5,52.6,29.98,SSW,192,0.0,0.0,61,0.00,,,0.00,Wunderground v.1.15,2013-05-09 02:11:00,
2013-05-08 22:16:00,66.3,52.4,29.98,SSW,192,0.0,0.0,61,0.00,,,0.00,Wunderground v.1.15,2013-05-09 02:16:00,
2013-05-08 22:22:00,66.1,52.7,29.98,SSW,192,0.0,0.0,62,0.00,,,0.00,Wunderground v.1.15,2013-05-09 02:22:00,
2013-05-08 22:27:00,65.8,52.4,29.98,SSW,192,0.0,0.0,62,0.00,,,0.00,Wunderground v.1.15,2013-05-09 02:27:00,
2013-05-08 22:33:00,65.3,52.4,29.98,SSW,192,0.0,0.0,63,0.00,,,0.00,Wunderground v.1.15,2013-05-09 02:33:00,
2013-05-08 22:39:00,64.7,52.7,29.98,SSW,192,0.0,0.0,65,0.00,,,0.00,Wunderground v.1.15,2013-05-09 02:39:00,
2013-05-08 22:44:00,64.1,52.5,29.98,SSW,192,0.0,0.0,66,0.00,,,0.00,Wunderground v.1.15,2013-05-09 02:44:00,
2013-05-08 22:50:00,63.6,52.4,29.98,SSW,192,0.0,0.0,67,0.00,,,0.00,Wunderground v.1.15,2013-05-09 02:50:00,
2013-05-08 22:55:00,63.2,52.5,29.98,SSW,192,0.0,0.0,68,0.00,,,0.00,Wunderground v.1.15,2013-05-09 02:55:00,
2013-05-08 23:00:00,62.8,52.5,29.98,SSW,192,0.0,0.0,69,0.00,,,0.00,Wunderground v.1.15,2013-05-09 03:00:00,
2013-05-08 23:05:00,62.5,52.6,29.98,SSW,192,0.0,0.0,70,0.00,,,0.00,Wunderground v.1.15,2013-05-09 03:05:00,
2013-05-08 23:11:00,62.2,52.3,29.98,SSW,192,0.0,0.0,70,0.00,,,0.00,Wunderground v.1.15,2013-05-09 03:11:00,
2013-05-08 23:16:00,61.9,52.4,29.98,SSW,192,0.0,0.0,71,0.00,,,0.00,Wunderground v.1.15,2013-05-09 03:16:00,
2013-05-08 23:22:00,61.4,51.9,29.98,SSW,192,0.0,0.0,71,0.00,,,0.00,Wunderground v.1.15,2013-05-09 03:22:00,
2013-05-08 23:27:00,61.1,52.4,29.98,SSW,192,0.0,0.0,73,0.00,,,0.00,Wunderground v.1.15,2013-05-09 03:27:00,
2013-05-08 23:33:00,60.8,52.5,29.97,SSW,192,0.0,0.0,74,0.00,,,0.00,Wunderground v.1.15,2013-05-09 03:33:00,
2013-05-08 23:39:00,60.6,52.6,29.97,SSW,192,0.0,0.0,75,0.00,,,0.00,Wunderground v.1.15,2013-05-09 03:39:00,
2013-05-08 23:44:00,60.3,52.7,29.97,SSW,192,0.0,0.0,76,0.00,,,0.00,Wunderground v.1.15,2013-05-09 03:44:00,
2013-05-08 23:50:00,60.1,52.9,29.98,SSW,192,0.0,0.0,77,0.00,,,0.00,Wunderground v.1.15,2013-05-09 03:50:00,
2013-05-08 23:55:00,60.0,52.8,29.97,SSW,192,0.0,0.0,77,0.00,,,0.00,Wunderground v.1.15,2013-05-09 03:55:00,